Weather History for Provincetown, MA

Change the Weather History Date:

Thursday, August 29, 2013

  Actual Average Record
Temperature  
Mean Temperature 64 °F -  
Max Temperature 68 °F 72 °F 90 °F (1953)
Min Temperature 60 °F 60 °F 46 °F (1957)
Degree Days  
Heating Degree Days 1    
Growing Degree Days 14 (Base 50)    
Moisture  
Dew Point 61 °F    
Average Humidity 89    
Maximum Humidity 100    
Minimum Humidity 77    
Precipitation  
Precipitation 0.00 in - - ()
Sea Level Pressure  
Sea Level Pressure 30.02 in    
Wind  
Wind Speed 10 mph (NE)    
Max Wind Speed 18 mph    
Max Gust Speed 23 mph    
Visibility 10 miles    
Events      
Averages and records for this station are not official NWS values.
T = Trace of Precipitation, MM = Missing Value Source: NWS Daily Summary

Daily Weather History Graph

Daily Weather History Graph

Search for Another Location

Airport:

Trip Planner

Search our weather history database for the weather conditions in past years. The results will help you decide how hot, cold, wet, or windy it might be!

Date:

Astronomy

Aug. 29, 2013 Rise Set
Actual Time 6:03 AM EDT 7:19 PM EDT
Civil Twilight 5:34 AM EDT 7:48 PM EDT
Nautical Twilight 4:59 AM EDT 8:22 PM EDT
Astronomical Twilight 4:23 AM EDT 8:59 PM EDT
Moon No Moon Rise 2:48 PM EDT (8/29)
Length of Visible Light 14h 13m
Length of Day
13h 15m
Last Quarter, 38% of the Moon is Illuminated
Aug 29
Last Quarter
Sep 5
New
Sep 12
First Quarter
Sep 19
Full
Sep 26
Last Quarter

Hourly Weather History & Observations

Time (EDT) Temp. Dew Point Humidity Pressure Visibility Wind Dir Wind Speed Gust Speed Precip Events Conditions
12:15 AM 64.4 °F 62.6 °F 94% 29.96 in 10.0 mi North 8.1 mph - N/A   Overcast
12:35 AM 64.4 °F 64.4 °F 100% 29.96 in 10.0 mi NNE 9.2 mph - N/A   Overcast
12:55 AM 64.4 °F 64.4 °F 100% 29.96 in 5.0 mi NNE 12.7 mph - N/A   Overcast
1:15 AM 64.4 °F 64.4 °F 100% 29.96 in 4.0 mi NNE 9.2 mph - N/A   Overcast
1:35 AM 64.4 °F 64.4 °F 100% 29.96 in 9.0 mi NNE 8.1 mph - N/A   Overcast
1:55 AM 64.4 °F 64.4 °F 100% 29.96 in 4.0 mi NNE 8.1 mph - N/A   Overcast
2:15 AM 64.4 °F 64.4 °F 100% 29.96 in 6.0 mi NE 9.2 mph - N/A   Overcast
2:35 AM 64.4 °F 64.4 °F 100% 29.96 in 10.0 mi NE 8.1 mph - N/A   Overcast
2:55 AM 64.4 °F 64.4 °F 100% 29.96 in 10.0 mi NNE 9.2 mph - N/A   Overcast
3:15 AM 64.4 °F 62.6 °F 94% 29.96 in 10.0 mi NE 6.9 mph - N/A   Overcast
3:35 AM 64.4 °F 62.6 °F 94% 29.97 in 10.0 mi NNE 4.6 mph - N/A   Overcast
3:55 AM 64.4 °F 62.6 °F 94% 29.97 in 10.0 mi NNE 4.6 mph - N/A   Overcast
4:15 AM 64.4 °F 62.6 °F 94% 29.97 in 10.0 mi NE 6.9 mph - N/A   Overcast
4:35 AM 64.4 °F 62.6 °F 94% 29.98 in 10.0 mi NE 8.1 mph - N/A   Overcast
4:55 AM 64.4 °F 62.6 °F 94% 29.99 in 10.0 mi NE 9.2 mph - N/A   Overcast
5:15 AM 64.4 °F 62.6 °F 94% 29.99 in 3.0 mi NE 9.2 mph - N/A   Overcast
5:35 AM 64.4 °F 62.6 °F 94% 29.99 in 10.0 mi NE 9.2 mph - N/A   Overcast
5:55 AM 62.6 °F 62.6 °F 100% 29.99 in 10.0 mi NNE 9.2 mph - N/A   Overcast
6:15 AM 64.4 °F 62.6 °F 94% 29.99 in 10.0 mi NNE 10.4 mph 16.1 mph N/A   Overcast
6:35 AM 64.4 °F 62.6 °F 94% 30.00 in 10.0 mi NE 8.1 mph - N/A   Overcast
6:55 AM 64.4 °F 62.6 °F 94% 30.01 in 10.0 mi NE 12.7 mph 18.4 mph N/A   Overcast
7:15 AM 64.4 °F 62.6 °F 94% 30.01 in 10.0 mi NE 13.8 mph 18.4 mph N/A   Overcast
7:35 AM 64.4 °F 62.6 °F 94% 30.01 in 10.0 mi ENE 12.7 mph - N/A   Overcast
7:55 AM 64.4 °F 64.4 °F 100% 30.00 in 10.0 mi NE 11.5 mph - N/A   Overcast
8:15 AM 64.4 °F 62.6 °F 94% 30.01 in 9.0 mi NE 12.7 mph - N/A   Overcast
8:35 AM 64.4 °F 62.6 °F 94% 30.02 in 9.0 mi NE 13.8 mph - N/A   Overcast
8:55 AM 64.4 °F 62.6 °F 94% 30.02 in 8.0 mi NE 9.2 mph - N/A   Overcast
9:15 AM 64.4 °F 62.6 °F 94% 30.02 in 10.0 mi NE 11.5 mph - N/A   Overcast
9:35 AM 64.4 °F 62.6 °F 94% 30.03 in 10.0 mi ENE 9.2 mph - N/A   Overcast
9:55 AM 64.4 °F 62.6 °F 94% 30.03 in 10.0 mi ENE 9.2 mph - N/A   Overcast
10:15 AM 66.2 °F 64.4 °F 94% 30.03 in 10.0 mi ENE 8.1 mph - N/A   Overcast
10:35 AM 66.2 °F 64.4 °F 94% 30.04 in 10.0 mi ENE 9.2 mph - N/A   Overcast
10:55 AM 66.2 °F 62.6 °F 88% 30.04 in 10.0 mi NE 8.1 mph - N/A   Overcast
11:15 AM 66.2 °F 64.4 °F 94% 30.05 in 10.0 mi ENE 10.4 mph - N/A   Overcast
11:35 AM 66.2 °F 64.4 °F 94% 30.05 in 10.0 mi ENE 9.2 mph - N/A   Overcast
11:55 AM 66.2 °F 62.6 °F 88% 30.05 in 10.0 mi East 12.7 mph 16.1 mph N/A   Overcast
12:15 PM 64.4 °F 62.6 °F 94% 30.05 in 5.0 mi ENE 12.7 mph 19.6 mph N/A   Overcast
12:35 PM 64.4 °F 62.6 °F 94% 30.04 in 9.0 mi ENE 11.5 mph - N/A   Overcast
12:55 PM 66.2 °F 62.6 °F 88% 30.04 in 10.0 mi NE 12.7 mph - N/A   Overcast
1:15 PM 66.2 °F 62.6 °F 88% 30.04 in 10.0 mi ENE 15.0 mph 18.4 mph N/A   Overcast
1:35 PM 66.2 °F 62.6 °F 88% 30.04 in 10.0 mi NE 15.0 mph 20.7 mph N/A   Overcast
1:55 PM 66.2 °F 62.6 °F 88% 30.04 in 10.0 mi NE 15.0 mph 19.6 mph N/A   Overcast
2:15 PM 68.0 °F 62.6 °F 83% 30.04 in 10.0 mi NE 17.3 mph 20.7 mph N/A   Mostly Cloudy
2:35 PM 68.0 °F 62.6 °F 83% 30.04 in 10.0 mi NE 18.4 mph - N/A   Scattered Clouds
2:55 PM 66.2 °F 60.8 °F 83% 30.04 in 10.0 mi NE 16.1 mph - N/A   Overcast
3:15 PM 64.4 °F 60.8 °F 88% 30.04 in 10.0 mi NE 15.0 mph 20.7 mph N/A   Overcast
3:35 PM 64.4 °F 60.8 °F 88% 30.04 in 10.0 mi NE 17.3 mph 21.9 mph N/A   Overcast
3:55 PM 64.4 °F 59.0 °F 83% 30.04 in 10.0 mi NE 17.3 mph 21.9 mph N/A   Overcast
4:15 PM 64.4 °F 59.0 °F 83% 30.05 in 10.0 mi NE 13.8 mph 20.7 mph N/A   Overcast
4:35 PM 62.6 °F 57.2 °F 82% 30.06 in 10.0 mi NE 15.0 mph 20.7 mph N/A   Overcast
4:55 PM 62.6 °F 57.2 °F 82% 30.06 in 10.0 mi NE 16.1 mph 21.9 mph N/A   Overcast
5:15 PM 62.6 °F 57.2 °F 82% 30.06 in 10.0 mi NE 16.1 mph 23.0 mph N/A   Overcast
5:35 PM 62.6 °F 57.2 °F 82% 30.06 in 10.0 mi ENE 16.1 mph 23.0 mph N/A   Overcast
5:55 PM 62.6 °F 57.2 °F 82% 30.06 in 10.0 mi ENE 13.8 mph 17.3 mph N/A   Overcast
6:15 PM 62.6 °F 57.2 °F 82% 30.06 in 10.0 mi NE 16.1 mph 20.7 mph N/A   Overcast
6:35 PM 62.6 °F 57.2 °F 82% 30.06 in 10.0 mi NE 15.0 mph 20.7 mph N/A   Overcast
6:55 PM 62.6 °F 55.4 °F 77% 30.06 in 10.0 mi ENE 13.8 mph 20.7 mph N/A   Overcast
7:15 PM 62.6 °F 55.4 °F 77% 30.06 in 10.0 mi ENE 12.7 mph - N/A   Overcast
7:35 PM 62.6 °F 55.4 °F 77% 30.05 in 10.0 mi ENE 11.5 mph - N/A   Overcast
7:55 PM 60.8 °F 57.2 °F 88% 30.05 in 10.0 mi ENE 11.5 mph - N/A   Overcast
8:15 PM 60.8 °F 55.4 °F 82% 30.06 in 10.0 mi NE 11.5 mph - N/A   Scattered Clouds
8:35 PM 60.8 °F 55.4 °F 82% 30.05 in 10.0 mi ENE 9.2 mph - N/A   Clear
8:55 PM 60.8 °F 55.4 °F 82% 30.05 in 10.0 mi ENE 12.7 mph 17.3 mph N/A   Clear
9:15 PM 62.6 °F 55.4 °F 77% 30.04 in 10.0 mi NE 9.2 mph - N/A   Clear
9:35 PM 62.6 °F 55.4 °F 77% 30.04 in 10.0 mi ENE 10.4 mph - N/A   Clear
9:55 PM 62.6 °F 55.4 °F 77% 30.05 in 10.0 mi ENE 8.1 mph - N/A   Clear
10:15 PM 62.6 °F 55.4 °F 77% 30.05 in 10.0 mi NE 8.1 mph - N/A   Clear
10:35 PM 62.6 °F 55.4 °F 77% 30.04 in 10.0 mi NE 6.9 mph - N/A   Clear
10:55 PM 62.6 °F 57.2 °F 82% 30.04 in 10.0 mi North 6.9 mph - N/A   Clear
11:15 PM 60.8 °F 57.2 °F 88% 30.04 in 10.0 mi North 6.9 mph - N/A   Scattered Clouds
11:35 PM 62.6 °F 57.2 °F 82% 30.03 in 10.0 mi North 8.1 mph - N/A   Overcast
11:55 PM 62.6 °F 57.2 °F 82% 30.02 in 10.0 mi North 6.9 mph - N/A   Overcast